Retour au catalogue

ERS 1 DEB

ActifSSO
NORAD 35260·DEBRIS·🇪🇺 EU

Lancé Jul 17, 1991 depuis Guiana Space Centre

Loading…

Prochains Passages (prochaines 24 heures)

TLE

FraisSource: Space-Track

Époque: Sep 14, 2026, 02:07 UTC

1 35260U 91050P   26257.08835344  .00001620  00000-0  35105-3 0  9994
2 35260  98.5267 306.2757 0023096  56.5339 333.7968 14.59451719108257

Suivez ERS 1 DEB en temps réel avec AllMySat

Download on the App Store